Location: *
(41.0833°N, 73.4167°W)
Time: 00:07:24
(UTC+00:00)

Cosmos 1437 Rocket - Pass Details

Date: 22 October 2019
Orbit: 507 x 563 km, 81.2° (Epoch: 14 November)

Event Time Altitude Azimuth Distance (km) Brightness Sun altitude
Rises 10:34:11 0° 224° (SW) 2,604 5.9 -8.0°
Reaches altitude 10° 10:36:50 10° 244° (WSW) 1,721 4.8 -7.5°
Maximum altitude 10:39:28 18° 289° (WNW) 1,302 4.1 -7.0°
Drops below altitude 10° 10:42:07 10° 333° (NNW) 1,730 5.0 -6.5°
Sets 10:44:48 0° 353° (N) 2,624 6.1 -6.0°
